Tracking 26940 objects as of 28-Jan-2023
HD Live streaming from Space Station
objects crossing your sky now

MOLNIYA 3-47

Track MOLNIYA 3-47 now!
MOLNIYA 3-47 is classified as:


NORAD ID: 23642
Int'l Code: 1995-042A
Perigee: 1,662.5 km
Apogee: 38,467.0 km
Inclination: 64.4 °
Period: 712.9 minutes
Semi major axis: 26435 km
RCS: 13.479 m2 (large)
Launch date: August 9, 1995
Source: Commonwealth of Independent States (former USSR) (CIS)
Launch site: PLESETSK MISSILE AND SPACE COMPLEX (PKMTR)
Your satellite tracking list
Your tracking list is empty




NASA's NSSDC Master Catalog

Two Line Element Set (TLE):
1 23642U 95042A   23028.07579265 -.00000884  00000-0  00000-0 0  9994
2 23642  64.3916  47.7555 6961135 283.1621  13.0162  2.01983601201551
Source of the keplerian elements: AFSPC